Weather reports worldwide

Advertisment
Falconara, Italy (16191): temperature & dewpoint: 20.05.2019 00:00:00 - 26.05.2019 00:00:00 (CEST)Falconara, Italy (16191): wind speed: 20.05.2019 00:00:00 - 26.05.2019 00:00:00 (CEST)Falconara, Italy (16191): wind direction: 20.05.2019 00:00:00 - 26.05.2019 00:00:00 (CEST)Falconara, Italy (16191): reduced air pressure: 20.05.2019 00:00:00 - 26.05.2019 00:00:00 (CEST)Falconara, Italy (16191): visibility: 20.05.2019 00:00:00 - 26.05.2019 00:00:00 (CEST)Falconara, Italy (16191): precipitation: 20.05.2019 00:00:00 - 26.05.2019 00:00:00 (CEST)
Date & Time tt [°C] td [°C] ff [km/h] ff [kn] dd ppp [hPa] vv [km] rr [mm]
26.05.2019 00:00:00 - - - - - - - -
25.05.2019 23:00:00 19,1 15,5 4 2 S 1014,6 10 0,0
25.05.2019 22:00:00 20,0 16,0 8 4 ESE - 10 -
25.05.2019 21:00:00 20,0 16,0 4 2 - - 10 -
25.05.2019 20:00:00 20,6 15,1 5 3 SSE 1013,3 10 -
25.05.2019 19:00:00 22,0 15,0 9 5 ESE - 10 -
25.05.2019 18:00:00 23,0 15,0 8 4 ESE - 10 -
25.05.2019 17:00:00 22,9 14,1 8 4 ESE 1013,3 10 0,0
25.05.2019 16:00:00 23,0 13,0 11 6 SE - 10 -
25.05.2019 15:00:00 24,0 15,0 13 7 ENE - 10 -
25.05.2019 14:00:00 22,9 16,1 16 9 ENE 1014,0 20 -
25.05.2019 13:00:00 22,0 15,0 15 8 ENE - 10 -
25.05.2019 12:00:00 22,0 14,0 15 8 NE - 10 -
25.05.2019 11:00:00 22,6 14,8 9 5 NE 1014,6 20 0,0
25.05.2019 10:00:00 22,0 14,0 4 2 - - 10 -
25.05.2019 09:00:00 21,0 14,0 4 2 - - 10 -
25.05.2019 08:00:00 18,9 14,3 4 2 S 1013,8 55 -
25.05.2019 07:00:00 15,0 14,0 4 2 S - 10 -
25.05.2019 06:00:00 13,0 13,0 8 4 S - 10 -
25.05.2019 05:00:00 12,5 11,6 4 2 SSW 1013,0 10 0,0
25.05.2019 04:00:00 14,0 13,0 8 4 S - 9 -
25.05.2019 03:00:00 15,0 13,0 4 2 SSE - 10 -
25.05.2019 02:00:00 15,2 12,8 5 3 SSE 1013,1 10 -
25.05.2019 01:00:00 16,0 13,0 4 2 S - 10 -
25.05.2019 00:00:00 17,0 14,0 4 2 - - 10 -
24.05.2019 23:00:00 17,1 14,2 5 3 S 1013,3 10 0,0
24.05.2019 22:00:00 18,0 14,0 4 2 S - 10 -
24.05.2019 21:00:00 19,0 14,0 2 1 - - 10 -
24.05.2019 20:00:00 20,8 14,4 4 2 N 1012,1 10 -
24.05.2019 19:00:00 22,0 14,0 15 8 SW - 10 -
24.05.2019 18:00:00 22,0 14,0 9 5 NE - 10 -
24.05.2019 17:00:00 22,6 12,9 13 7 ENE 1012,7 30 0,0
24.05.2019 16:00:00 22,0 13,0 16 9 NE - 10 -
24.05.2019 15:00:00 22,0 15,0 15 8 ENE - 10 -
24.05.2019 14:00:00 21,3 15,1 15 8 NE 1013,4 55 -
24.05.2019 13:00:00 21,0 14,0 15 8 NNE - 10 -
24.05.2019 12:00:00 21,0 14,0 13 7 NNE - 10 -
24.05.2019 11:00:00 21,6 13,9 9 5 NNE 1014,2 55 0,0
24.05.2019 10:00:00 21,0 14,0 11 6 N - 10 -
24.05.2019 09:00:00 20,0 14,0 2 1 - - 10 -
24.05.2019 08:00:00 17,0 14,6 4 2 SW 1014,3 55 -
24.05.2019 07:00:00 13,0 12,0 8 4 SW - 10 -
24.05.2019 06:00:00 12,0 11,0 2 1 - - 10 -
24.05.2019 05:00:00 13,2 11,5 2 1 N 1013,8 10 0,0
24.05.2019 04:00:00 13,0 12,0 4 2 S - 9 -
24.05.2019 03:00:00 14,0 13,0 5 3 S - 10 -
24.05.2019 02:00:00 14,4 12,3 4 2 SSE 1014,5 10 -
24.05.2019 01:00:00 14,0 13,0 5 3 SSE - 10 -
24.05.2019 00:00:00 15,0 13,0 5 3 SSE - 10 -
23.05.2019 23:00:00 15,3 12,5 4 2 SSE 1014,9 20 0,0
23.05.2019 22:00:00 16,0 12,0 5 3 SSE - 10 -
23.05.2019 21:00:00 17,0 12,0 2 1 - - 10 -
23.05.2019 20:00:00 18,3 12,1 5 3 NNE 1014,5 10 -
23.05.2019 19:00:00 19,0 13,0 11 6 NNE - 10 -
23.05.2019 18:00:00 20,0 14,0 9 5 NNE - 10 -
23.05.2019 17:00:00 21,0 14,0 5 3 N - 10 -
23.05.2019 16:00:00 19,0 15,0 15 8 N - 10 -
23.05.2019 15:00:00 20,0 16,0 16 9 NNE - 10 -
23.05.2019 14:00:00 20,2 15,5 15 8 N 1015,5 30 -
23.05.2019 13:00:00 20,0 15,0 15 8 N - 10 -
23.05.2019 12:00:00 20,0 15,0 13 7 N - 10 -
23.05.2019 11:00:00 20,2 13,5 13 7 N 1016,4 30 0,0
23.05.2019 10:00:00 20,0 14,0 13 7 NNW - 10 -
23.05.2019 09:00:00 20,0 13,0 13 7 W - 10 -
23.05.2019 08:00:00 18,3 12,7 8 4 SSW 1016,1 55 -
23.05.2019 07:00:00 16,0 12,0 5 3 SSE - 10 -
23.05.2019 06:00:00 15,0 12,0 8 4 SSE - 10 -
23.05.2019 05:00:00 14,7 11,5 5 3 SSE 1015,3 10 0,0
23.05.2019 04:00:00 15,0 12,0 9 5 SSE - 10 -
23.05.2019 03:00:00 15,0 13,0 5 3 S - 10 -
23.05.2019 02:00:00 14,2 12,4 5 3 SSW 1015,6 10 -
23.05.2019 01:00:00 16,0 12,0 5 3 S - 10 -
23.05.2019 00:00:00 16,0 13,0 9 5 S - 10 -
22.05.2019 23:00:00 16,6 12,8 8 4 S 1015,8 10 0,0
22.05.2019 22:00:00 17,0 12,0 5 3 S - 10 -
22.05.2019 21:00:00 18,0 12,0 8 4 SSE - 10 -
22.05.2019 20:00:00 19,3 12,2 8 4 SSE 1015,0 15 -
22.05.2019 19:00:00 20,0 12,0 8 4 SE - 10 -
22.05.2019 18:00:00 21,0 10,0 9 5 SE - 10 -
22.05.2019 17:00:00 22,1 10,3 13 7 ESE 1014,1 28 0,0
22.05.2019 16:00:00 22,0 11,0 13 7 ENE - 10 -
22.05.2019 15:00:00 19,0 14,0 9 5 SSW - 10 -
22.05.2019 14:00:00 21,3 11,8 16 9 ENE 1014,8 15 -
22.05.2019 13:00:00 22,0 12,0 18 10 NE - 10 -
22.05.2019 12:00:00 22,0 11,0 8 4 SE - 10 -
22.05.2019 11:00:00 20,2 11,7 8 4 NE 1015,1 20 0,0
22.05.2019 10:00:00 19,0 12,0 4 2 - - 10 -
22.05.2019 09:00:00 18,0 12,0 4 2 - - 10 -
22.05.2019 08:00:00 15,8 12,9 4 2 SSW 1014,3 20 -
22.05.2019 07:00:00 13,0 12,0 5 3 SSW - 10 -
22.05.2019 06:00:00 13,0 11,0 4 2 W - 10 -
22.05.2019 05:00:00 13,0 10,9 5 3 S 1014,1 10 0,0
22.05.2019 04:00:00 - - - - - - - -
22.05.2019 03:00:00 12,0 11,0 4 2 - - 10 -
22.05.2019 02:00:00 13,1 10,7 8 4 SSE 1013,2 10 -
22.05.2019 01:00:00 14,0 11,0 5 3 SSE - 10 -
22.05.2019 00:00:00 14,0 11,0 5 3 WSW - 10 -
21.05.2019 23:00:00 16,0 11,0 5 3 SW - 10 -
21.05.2019 22:00:00 17,0 11,0 13 7 SSW - 10 -
21.05.2019 21:00:00 19,0 12,0 18 10 WSW - 10 -
21.05.2019 20:00:00 19,6 11,6 21 11 SW 1011,8 20 -
21.05.2019 19:00:00 22,0 12,0 18 10 WSW - 10 -
21.05.2019 18:00:00 23,0 12,0 28 15 SW - 10 -
21.05.2019 17:00:00 23,6 11,7 24 13 SW 1011,0 25 0,0
21.05.2019 16:00:00 22,0 11,0 24 13 SW - 10 -
21.05.2019 15:00:00 22,0 12,0 24 13 SW - 10 -
21.05.2019 14:00:00 20,6 11,6 28 15 SW 1011,2 10 -
21.05.2019 13:00:00 20,0 12,0 26 14 SSW - 10 -
21.05.2019 12:00:00 21,0 12,0 26 14 SW - 10 -
21.05.2019 11:00:00 18,9 11,8 24 13 SSW 1010,3 10 0,0
21.05.2019 10:00:00 17,0 12,0 11 6 SSW - 10 -
21.05.2019 09:00:00 17,0 11,0 15 8 SSW - 10 -
21.05.2019 08:00:00 16,8 10,8 9 5 SW 1009,2 10 -
21.05.2019 07:00:00 13,0 11,0 4 2 - - 10 -
21.05.2019 06:00:00 10,0 9,0 5 3 SSE - 10 -
21.05.2019 05:00:00 9,3 7,9 5 3 S 1008,8 10 0,0
21.05.2019 04:00:00 10,0 8,0 4 2 - - 10 -
21.05.2019 03:00:00 11,0 9,0 8 4 SSE - 10 -
21.05.2019 02:00:00 10,4 8,7 2 1 N 1009,4 10 -
21.05.2019 01:00:00 12,0 9,0 5 3 SSE - 10 -
21.05.2019 00:00:00 13,0 9,0 8 4 SSE - 10 -
20.05.2019 23:00:00 13,3 8,8 0 0 N 1008,9 20 0,0
20.05.2019 22:00:00 15,0 10,0 5 3 S - 10 -
20.05.2019 21:00:00 17,0 9,0 4 2 - - 10 -
20.05.2019 20:00:00 18,1 8,7 9 5 SSW 1007,8 20 -
20.05.2019 19:00:00 20,0 8,0 21 11 SW - 10 -
20.05.2019 18:00:00 19,0 12,0 13 7 SE - 10 -
20.05.2019 17:00:00 18,3 10,6 13 7 SE 1007,5 20 0,0
20.05.2019 16:00:00 19,0 11,0 13 7 SE - 10 -
20.05.2019 15:00:00 22,0 9,0 16 9 SSW - 10 -
20.05.2019 14:00:00 19,9 8,3 18 10 SSW 1007,6 30 -
20.05.2019 13:00:00 21,0 8,0 24 13 SW - 10 -
20.05.2019 12:00:00 19,0 8,0 26 14 SW - 10 -
20.05.2019 11:00:00 18,7 8,0 29 16 WSW 1007,4 20 0,0
20.05.2019 10:00:00 18,0 10,0 26 14 SW - 10 -
20.05.2019 09:00:00 17,0 11,0 11 6 SSW - 10 -
20.05.2019 08:00:00 14,8 10,2 5 3 S 1006,2 20 -
20.05.2019 07:00:00 13,0 11,0 5 3 S - 10 -
20.05.2019 06:00:00 13,0 10,0 4 2 - - 10 -
20.05.2019 05:00:00 12,7 11,1 4 2 S 1005,7 30 0,0
20.05.2019 04:00:00 13,0 11,0 11 6 SSW - 10 -
20.05.2019 03:00:00 14,0 11,0 11 6 SSW - 10 -
20.05.2019 02:00:00 14,2 10,6 8 4 S 1005,7 25 -
20.05.2019 01:00:00 15,0 10,0 15 8 SSW - 10 -
20.05.2019 00:00:00 15,0 11,0 15 8 SSW - 10 -

tt = temperature
td = dewpoint
ff = wind speed
dd = wind direction
ppp = reduced air pressure
vv = visibility
rr = precipitation

Next stations